DELTA 1 DEB, 10234

Orbit data source: Space-Track

DELTA 1 DEB, 10234 is space debris in LEO originally from a launch on Thu, 14 Jul 1977 UTC launched from the Air Force Eastern Test Range (AFETR). Debris objects in space refer to the collection of defunct objects orbiting the Earth. Examples of debris include non-operational satellites, rocket bodies, and fragments generated from explosions, collisions, or faulty payload assembly.

Loading next visibility...
Identifier
10234, 1977-065BM
Orbit
LEO
Country
Flag of USUS
Related business
Manufacturer
Unknown
Mission
Spacecraft
Bus & Motor
Unknown
Mass
Unknown
Launch date (UTC)
1977-07-14 (48 years ago)
Launch vehicle
Unknown
Launch site
Air Force Eastern Test Range (AFETR)
Object type
Payload
Rocket body
Debris
Shape & HBR
Unknown shape, 0.7 m
Radar Cross Section
Large (>1 m²)

Expand to show TLE details & history
Last TLE update: 5 hours ago

TLE from 5 hours ago
0 DELTA 1 DEB
1 10234U 77065BM  25349.97573218  .00006968  00000-0  49623-3 0  9996
2 10234  28.9462 234.0327 0289948 214.1379 144.0251 14.74641096453833
Epoch: 2025-12-15T23:25Z
TLE epoch observation values (Epoch: 2025-12-15T23:25:03.260Z)
Latitude
0.00002°
Longitude
157.90258°
Altitude
811.372 km
Speed
7.361 km/s
True Right ascension
15h 36m 07s
True Declination
0° 00' 00"
Sunlit
Object was in daylight at epoch
Visualization orbit readout
Latitude
Unknown
Longitude
Unknown
Altitude
Unknown
Speed
Unknown
Apparent Right ascension
Unknown
Apparent Declination
Unknown
Sunlit
N/A
Visualization observer readout
Local Sidereal Time
02:50:03
Azimuth
Unknown
Elevation
Unknown
Doppler factor
Unknown
Orbital elements
Apogee altitude
854.159 km
Perigee altitude
446.579 km
Semi-major axis
7,028.506 km
Eccentricity
0.02899
Inclination
28.9462°
RAAN
234.0327°
Arg. of periapsis
214.1379°
True anomaly
145.92085°
Mean anomaly
144.0251°
Eccentric anomaly
144.97848°
Mean motion
3.6834 °/min
Orbital period
97.74 mins
BSTAR
0.00049623
Loading maneuver chart data...
Computing Atmospheric mass density...

Documentation

Showing up to 5 results
|